Probability
3 2 2 3 3 3 3 3 3 3 3 3 3 1 0 0 0 0 0 1 2 3 3 3 3 3 3 2 2 2 1 0 0 0 0 0 0 0 0 0 0 0 0
2 1 1 2 2 2 2 2 2 3 3 3 2 1 0 0 0 0 0 1 2 2 3 3 3 2 2 1 1 1 0 0 0 0 0 0 0 0 0 0 0 0 0
1 0 0 1 1 1 1 1 1 2 3 2 1 1 0 0 0 0 0 1 1 1 2 2 1 1 1 0 0 0 0 0 0 0 0 0 0 0 0 0 0 0 0
0 0 0 0 0 0 0 1 1 1 2 1 0 0 0 0 0 0 0 0 0 0 1 1 0 0 0 0 0 0 0 0 0 0 0 0 0 0 0 0 0 0 0
0 0 0 0 0 0 0 0 0 0 0 0 0 0 0 0 0 0 0 0 0 0 0 0 0 0 0 0 0 0 0 0 0 0 0 0 0 0 0 0 0 0 0
0 0 0 0 0 0 0 0 0 0 0 0 0 0 0 0 0 0 0 0 0 0 0 0 0 0 0 0 0 0 0 0 0 0 0 0 0 0 0 0 0 0 0
0 0 0 0 0 0 0 0 0 0 0 0 0 0 0 0 0 0 0 0 0 0 0 0 0 0 0 0 0 0 0 0 0 0 0 0 0 0 0 0 0 0 0
0 0 0 0 0 0 0 0 0 0 0 0 0 0 0 0 0 0 0 0 0 0 0 0 0 0 0 0 0 0 0 0 0 0 0 0 0 0 0 0 0 0 0
0 0 0 0 0 0 0 0 0 0 0 0 0 0 0 0 0 0 0 0 0 0 0 0 0 0 0 0 0 0 0 0 0 0 0 0 0 0 0 0 0 0 0
0 0 0 0 0 0 0 0 0 0 0 0 0 0 0 0 0 0 0 0 0 0 0 0 0 0 0 0 0 0 0 0 0 0 0 0 0 0 0 0 0 0 0
0 0 0 0 0 0 0 0 0 0 0 0 0 0 0 0 0 0 0 0 0 0 0 0 0 0 0 0 0 0 0 0 0 0 0 0 0 0 0 0 0 0 0
0 0 0 0 0 0 0 0 0 0 0 0 0 0 0 0 0 0 0 0 0 0 0 0 0 0 0 0 0 0 0 0 0 0 0 0 0 0 0 0 0 0 0
0 0 0 0 0 0 0 0 0 0 0 0 0 0 0 0 0 0 0 0 0 0 0 0 0 0 0 0 0 0 0 0 0 0 0 0 0 0 0 0 0 0 0
0 0 0 0 0 0 0 0 0 0 0 0 0 0 0 0 0 0 0 0 0 0 0 0 0 0 0 0 0 0 0 0 0 0 0 0 0 0 0 0 0 0 0
0 0 0 0 0 0 0 0 0 0 0 0 0 0 0 0 0 0 0 0 0 0 0 0 0 0 0 0 0 0 0 0 0 0 0 0 0 0 0 0 0 0 0
0 0 0 0 0 0 0 0 0 0 0 0 0 0 0 0 0 0 0 0 0 0 0 0 0 0 0 0 0 0 0 0 0 0 0 0 0 0 0 0 0 0 0
0 0 0 0 0 0 0 0 0 0 0 0 0 0 0 0 0 0 0 0 0 0 0 0 0 0 0 0 0 0 0 0 0 0 0 0 0 0 0 0 0 0 0
0 0 0 0 0 0 0 0 0 0 0 0 0 0 0 0 0 0 0 0 0 0 0 0 0 0 0 0 0 0 0 0 0 0 0 0 0 0 0 0 0 0 0
0 0 0 0 0 0 0 0 0 0 0 0 0 0 0 0 0 0 0 0 0 0 0 0 0 0 0 0 0 0 0 0 0 0 0 0 0 0 0 0 0 0 0
0 0 0 0 0 0 0 0 0 0 0 0 0 0 0 0 0 0 0 0 0 0 0 0 0 0 0 0 0 0 0 0 0 0 0 0 0 0 0 0 0 0 0
0 0 0 0 0 0 0 0 0 0 0 0 0 0 0 0 0 0 0 0 0 0 0 0 0 0 0 0 0 0 0 0 0 0 0 0 0 0 0 0 0 0 0
0 0 0 0 0 0 0 0 0 0 0 0 0 0 0 0 0 0 0 0 0 0 0 0 0 0 0 0 0 0 0 0 0 0 0 0 0 0 0 0 0 0 0
0 0 0 0 0 0 0 0 0 0 0 0 0 0 0 0 0 0 0 0 0 0 0 0 0 0 0 0 0 0 0 0 0 0 0 0 0 0 0 0 0 0 0
0 0 0 0 0 0 0 0 0 0 0 0 0 0 0 0 0 0 0 0 0 0 0 0 0 0 0 0 0 0 0 0 0 0 0 0 0 0 0 0 0 0 0
0 0 0 0 0 0 0 0 0 0 0 0 0 0 0 0 0 0 0 0 0 0 0 0 0 0 0 0 0 0 0 0 0 0 0 0 0 0 0 0 0 0 0
0 0 0 0 0 0 0 0 0 0 0 0 0 0 0 0 0 0 0 0 0 0 0 0 0 0 0 0 0 0 0 0 0 0 0 0 0 0 0 0 0 0 0
Wind_Speed
3 4 4 5 5 5 5 5 5 4 4 3 2 2 2 1 1 1 2 2 2 2 2 2 2 2 2 3 3 3 3 2 3 3 3 3 4 3 3 3 3 3 3
4 4 4 5 6 6 6 5 5 4 3 2 1 1 1 1 1 1 1 2 2 2 2 2 2 3 2 3 3 3 2 2 2 2 3 3 2 2 2 2 2 3 3
5 5 5 5 5 5 6 5 5 4 4 3 2 2 1 1 1 1 0 1 1 2 2 2 2 3 3 2 3 2 3 3 2 2 3 3 3 3 2 2 2 2 3
4 4 5 5 5 5 5 5 5 4 4 4 3 3 2 2 1 0 0 0 1 1 2 2 2 2 2 3 3 2 3 3 3 2 2 3 4 4 3 2 2 3 4
4 4 4 4 4 4 4 4 5 4 4 4 4 3 3 2 1 1 1 1 1 1 2 2 2 2 2 3 3 3 3 3 3 3 3 3 4 5 5 5 4 3 3
3 3 3 3 3 4 4 4 4 5 4 4 4 4 4 3 2 2 2 1 1 1 1 2 2 2 2 3 3 3 3 3 3 3 3 3 3 3 4 6 6 5 4
2 2 3 3 4 4 4 4 5 4 4 4 4 4 4 4 4 3 3 2 2 2 2 2 2 2 2 3 3 3 3 4 4 4 4 4 4 4 5 5 6 6 5
2 2 3 3 3 4 4 5 5 5 4 4 4 4 4 3 3 3 3 3 3 2 2 3 3 3 3 3 3 3 4 4 4 5 5 4 4 4 4 5 5 6 5
1 1 2 3 3 3 4 4 5 5 5 5 5 4 4 4 4 4 4 3 3 3 3 3 3 3 4 4 4 3 4 4 4 4 5 4 4 4 4 4 5 5 6
1 1 2 2 3 3 3 3 4 5 5 5 4 4 4 4 4 4 4 4 4 3 4 4 4 3 4 4 4 4 4 5 4 4 5 5 4 3 3 4 5 5 6
2 2 2 2 3 3 3 3 4 4 4 4 4 4 4 4 4 4 5 4 4 4 4 4 4 4 4 4 4 5 5 5 5 5 5 5 5 4 4 4 4 5 5
3 2 3 3 3 3 3 3 3 4 4 4 4 4 4 4 5 5 5 5 5 5 5 5 5 5 5 5 5 5 5 6 6 5 5 5 4 5 4 4 5 5 6
3 3 3 3 3 3 3 3 4 4 3 3 4 4 5 5 5 5 5 5 5 5 5 5 5 5 5 5 5 6 6 6 6 6 6 6 5 6 4 5 5 5 5
3 3 3 4 4 4 4 4 4 4 3 4 4 4 5 5 5 5 5 5 5 6 6 6 6 6 6 6 6 6 6 6 6 6 6 6 6 6 6 5 6 5 5
4 4 4 4 4 4 4 4 4 4 4 4 5 5 5 4 5 5 5 5 6 6 6 6 6 6 5 5 6 6 6 7 6 6 6 6 6 7 7 5 5 5 5
5 5 5 5 5 5 4 4 4 4 4 5 5 5 5 5 5 5 5 5 6 6 6 6 6 7 6 7 9 8 7 7 7 6 6 6 6 7 9 9 8 7 6
5 5 5 5 5 5 5 5 5 4 5 6 5 5 5 5 5 5 6 6 6 6 6 7 7 7 8 9 10 10 8 7 7 7 6 5 5 7 6 7 8 8 9
6 5 5 5 5 5 5 5 4 5 5 6 6 5 5 6 6 6 6 7 6 6 6 7 7 7 8 9 10 10 9 8 8 7 7 7 6 6 6 6 6 7 7
6 6 5 5 5 5 5 4 5 5 6 6 6 6 6 6 6 6 7 6 6 6 7 7 7 8 8 9 10 10 6 7 8 7 7 7 7 7 8 7 7 7 6
5 5 5 5 5 5 4 5 6 6 7 6 6 6 6 6 7 7 7 6 6 7 6 7 7 8 8 8 10 10 6 6 6 6 7 9 9 9 9 7 7 7 6
6 5 5 5 5 4 4 6 6 7 6 5 6 6 6 7 7 6 6 6 6 6 6 6 6 7 7 8 10 11 6 6 6 5 5 5 9 10 10 9 7 7 7
6 5 5 5 5 5 5 6 7 6 5 5 6 7 7 6 5 6 6 6 6 6 6 6 6 5 6 7 8 10 11 8 6 6 5 5 8 9 9 8 7 8 6
6 5 6 6 5 5 6 7 7 5 5 6 7 7 6 6 6 6 6 5 5 5 5 5 5 5 4 5 8 10 11 11 7 5 6 7 7 8 7 8 8 6 4
6 6 6 6 6 5 6 7 6 5 6 7 7 6 6 6 6 5 5 5 5 5 5 5 5 5 4 4 4 5 6 7 7 5 6 8 8 6 6 5 5 4 4
6 6 6 7 7 6 6 6 6 6 7 7 7 6 6 6 6 6 6 7 7 6 6 6 5 5 6 6 7 5 5 4 4 4 3 4 4 4 4 4 3 3 3
6 6 7 7 8 7 7 6 6 6 6 6 6 5 5 5 5 5 5 7 8 9 10 10 9 7 8 8 9 10 9 8 7 5 4 4 4 4 4 4 4 4 3
Wind_Direction
199 179 176 167 162 164 166 167 154 149 151 153 158 155 140 118 102 72 57 41 22 9 356 349 345 338 332 332 331 325 315 322 316 291 283 265 254 257 262 266 271 277 280
191 183 182 174 175 172 173 169 164 163 164 161 148 134 122 119 95 87 62 24 6 358 346 341 335 334 328 329 334 332 313 318 331 307 291 282 243 224 272 276 281 286 289
200 189 184 180 180 181 182 176 171 168 168 160 142 140 153 170 172 171 105 24 358 348 334 326 325 329 322 318 321 320 312 305 306 303 294 290 295 316 259 270 277 297 304
198 188 183 182 184 185 177 177 170 168 172 174 182 186 203 212 210 214 245 315 328 328 322 314 317 317 314 307 304 303 295 285 287 289 279 286 299 290 291 256 274 298 298
186 181 186 188 184 178 174 173 168 171 176 188 197 205 217 226 210 211 236 265 285 310 310 303 301 297 296 300 300 293 284 283 281 281 280 273 271 268 273 283 291 294 296
174 170 171 176 177 174 173 174 177 182 185 195 203 213 218 221 224 235 245 250 256 265 277 283 280 282 287 290 289 282 274 274 272 268 266 266 268 269 269 275 286 292 296
172 175 179 183 181 180 179 181 187 193 194 201 211 215 222 225 233 244 249 256 254 251 262 274 278 279 279 279 279 278 278 273 268 264 266 265 266 275 276 275 282 287 290
178 194 201 200 195 193 192 194 198 203 203 209 214 219 220 224 231 239 248 252 258 265 269 268 275 279 277 273 270 269 269 267 263 264 265 265 267 267 268 273 279 282 278
170 206 216 218 212 204 203 204 207 211 208 209 213 218 223 225 229 238 245 253 258 263 260 260 265 269 271 270 270 265 266 266 265 267 264 263 266 266 266 268 269 274 282
203 236 229 223 223 218 207 205 214 218 216 214 215 218 224 228 233 236 237 243 250 253 255 254 254 258 260 261 260 263 263 263 263 264 264 263 263 265 264 264 264 264 272
254 259 243 225 219 216 206 204 212 217 217 221 225 226 229 230 234 237 240 243 245 245 248 250 251 252 255 258 258 258 261 261 262 258 259 262 265 265 262 262 265 265 265
263 251 243 226 218 219 216 216 215 217 222 223 227 232 237 235 236 240 243 243 243 241 241 244 246 247 250 254 257 259 259 259 260 260 258 261 261 262 266 264 263 265 266
262 248 243 232 228 229 226 223 220 222 223 222 228 233 237 239 242 246 247 244 244 244 240 239 241 243 245 249 252 256 257 258 259 258 257 261 261 263 263 266 267 267 268
259 254 252 244 237 235 233 231 229 225 223 225 232 238 244 247 253 255 252 249 246 246 244 241 241 242 242 245 248 252 255 257 257 258 258 260 259 262 264 264 266 268 270
266 264 262 258 248 245 244 241 239 232 227 234 240 245 251 254 255 254 252 251 248 247 247 246 246 245 243 241 244 248 251 254 255 254 254 256 260 266 267 268 270 270 270
270 270 264 260 253 252 254 249 245 239 234 239 246 251 253 254 254 254 253 252 251 249 246 243 244 245 244 241 243 250 249 250 252 254 254 254 251 255 259 265 270 271 269
269 269 265 261 259 257 256 253 251 245 240 244 249 250 252 255 256 256 254 251 252 250 248 248 246 247 246 242 243 244 248 249 251 252 253 252 252 255 257 258 259 263 266
268 271 273 271 269 263 257 256 251 243 244 247 249 250 251 254 258 256 255 255 253 248 248 248 248 250 250 244 246 246 244 246 247 247 249 252 253 250 255 258 259 261 262
274 277 278 275 270 262 257 252 247 243 244 248 250 250 250 255 257 255 257 258 255 253 251 251 249 250 251 244 246 246 245 243 246 246 246 249 250 250 253 256 259 263 265
278 281 282 274 267 264 252 245 245 245 246 251 253 254 251 251 255 258 259 258 255 254 256 254 252 251 253 246 243 241 241 243 245 245 243 243 249 252 250 250 252 259 264
285 286 279 271 268 264 246 245 248 250 255 257 256 254 252 252 256 259 257 256 255 255 253 255 253 252 252 251 245 238 236 239 243 243 243 241 245 252 251 252 253 260 272
284 283 277 273 269 255 246 251 256 263 264 260 258 257 256 256 252 253 255 253 250 251 249 252 256 253 250 249 245 238 237 240 241 243 245 246 247 254 254 250 253 260 262
280 280 275 273 268 255 247 255 265 269 263 261 260 261 260 257 250 248 250 250 246 247 246 246 252 255 249 246 246 244 239 237 240 243 245 249 250 253 250 248 252 251 245
273 273 270 269 271 265 258 261 268 264 258 260 263 262 260 260 255 249 244 242 242 245 245 245 249 254 251 245 235 235 235 236 238 242 240 241 243 242 250 249 242 241 243
268 266 262 266 272 274 267 265 263 256 257 261 263 262 259 258 257 253 249 246 246 244 245 248 247 249 252 246 240 243 237 231 230 234 236 232 229 229 230 236 240 237 235
268 265 264 267 273 275 273 269 261 254 255 259 259 259 258 257 256 258 262 250 249 254 252 255 255 257 258 259 248 246 246 239 225 221 228 231 231 234 235 234 235 235 235